CW6427 Weather Reports


time (UTC)temp
C
wind
direction
speed
KPH
gust
KPH
rain 1hr
cm
rain 24hr
cm
rain mn
cm
humidity
%
barometer
mb
20260504081849 7 193 11.3 14.5 0.00 0.00 0.00 67 1010.8
20260504045845 10 189 9.7 16.1 0.00 0.00 0.00 63 1011.1
20260504043845 10 188 8.0 14.5 0.00 0.00 0.00 64 1011.1
20260504042845 10 159 11.3 14.5 0.00 0.00 0.00 62 1011.4
20260504041845 10 173 12.9 16.1 0.00 0.00 0.00 62 1011.3
20260504040845 10 173 8.0 14.5 0.00 0.00 0.00 62 1011.4
20260504035844 10 162 6.4 17.7 0.00 0.00 0.00 61 1011.4
20260504034844 10 169 6.4 22.5 0.00 0.00 0.00 60 1011.5
20260504033844 10 175 12.9 17.7 0.00 0.00 0.00 62 1011.5
20260504032844 10 158 9.7 16.1 0.00 0.00 0.00 62 1011.5
20260504031844 10 161 8.0 16.1 0.00 0.00 0.00 63 1011.6
20260504025844 10 186 14.5 17.7 0.00 0.00 0.00 65 1011.7
20260504024843 10 152 8.0 17.7 0.00 0.00 0.00 65 1011.8
20260504023843 10 196 8.0 14.5 0.00 0.00 0.00 67 1011.8
20260504022843 9 127 3.2 16.1 0.00 0.00 0.00 68 1012.0
20260504021843 9 313 6.4 24.1 0.00 0.00 0.00 68 1012.3
20260504015843 10 187 11.3 22.5 0.00 0.00 0.00 60 1012.5
20260504014842 10 301 3.2 17.7 0.00 0.00 0.00 59 1012.1
20260504013842 10 227 3.2 16.1 0.00 0.00 0.00 60 1012.1
20260504010912 10 125 3.2 14.5 0.00 0.00 0.00 66 1012.1
20260504005842 9 167 9.7 12.9 0.00 0.00 0.00 66 1011.7
20260504004842 8 167 1.6 6.4 0.00 0.00 0.00 74 1011.6
20260504003841 8 165 3.2 8.0 0.00 0.00 0.00 73 1011.4
20260504000911 9 172 11.3 12.9 0.00 0.00 0.00 68 1011.6
20260503235841 9 213 8.0 17.7 0.00 0.00 0.00 67 1011.9
20260503234841 9 234 17.7 25.7 0.00 0.00 0.00 66 1011.9
20260503233840 10 223 8.0 41.8 0.00 0.00 0.00 64 1012.2
20260503232910 10 273 12.9 17.7 0.00 0.00 0.00 56 1011.9
20260503231840 10 355 4.8 8.0 0.00 0.00 0.00 54 1011.6
20260503230839 11 259 1.6 8.0 0.00 0.00 0.00 55 1011.4
20260503225840 11 263 3.2 11.3 0.00 0.00 0.00 54 1011.1
20260503224840 11 217 0.0 9.7 0.00 0.00 0.00 54 1011.1
20260503223909 11 199 4.8 8.0 0.00 0.00 0.00 55 1011.1
20260503222839 11 211 3.2 17.7 0.00 0.00 0.00 53 1011.1
20260503221839 11 182 9.7 14.5 0.00 0.00 0.00 53 1011.1
20260503220908 11 338 0.0 17.7 0.00 0.00 0.00 54 1011.2
20260503215908 11 344 6.4 20.9 0.00 0.00 0.00 54 1011.3
20260503214908 11 245 3.2 24.1 0.00 0.00 0.00 53 1011.3
20260503212838 10 311 9.7 22.5 0.00 0.00 0.00 54 1011.1
20260503211908 10 325 3.2 20.9 0.00 0.00 0.00 57 1011.2
20260503210907 10 206 1.6 27.4 0.00 0.00 0.00 54 1011.6
20260503205907 10 288 16.1 22.5 0.00 0.00 0.00 54 1011.6
20260503204907 10 270 17.7 27.4 0.00 0.00 0.00 54 1011.6
20260503203907 10 261 24.1 29.0 0.00 0.00 0.00 55 1011.7
20260503202907 10 300 16.1 32.2 0.00 0.00 0.00 55 1011.6
20260503201906 10 288 19.3 32.2 0.00 0.00 0.00 55 1011.7
20260503195906 10 300 24.1 27.4 0.00 0.00 0.00 57 1012.0
20260503193906 9 17 4.8 20.9 0.00 0.00 0.00 57 1012.3
20260503192906 9 300 11.3 25.7 0.00 0.00 0.00 56 1012.4
20260503191836 10 273 4.8 22.5 0.00 0.00 0.00 54 1012.3
20260503190906 10 221 9.7 25.7 0.00 0.00 0.00 58 1012.3
20260503185905 10 286 4.8 20.9 0.00 0.00 0.00 53 1012.5
20260503184905 9 236 8.0 30.6 0.00 0.00 0.00 53 1012.5
20260503183905 10 262 11.3 37.0 0.00 0.00 0.00 54 1012.8
20260503182905 10 250 8.0 27.4 0.00 0.00 0.00 51 1012.7
20260503181905 10 227 14.5 24.1 0.00 0.00 0.00 50 1012.7
20260503180904 9 236 24.1 30.6 0.00 0.00 0.00 52 1012.9
20260503175905 8 267 17.7 25.7 0.00 0.00 0.00 55 1013.0
20260503172904 9 305 17.7 22.5 0.00 0.00 0.00 52 1013.2
20260503171904 8 311 14.5 27.4 0.00 0.00 0.00 55 1013.3
20260503170904 8 324 9.7 25.7 0.00 0.00 0.00 53 1013.3
20260503150901 6 310 12.9 27.4 0.00 0.00 0.00 58 1014.3
20260503130900 4 216 4.8 19.3 0.00 0.00 0.00 74 1014.3